Hourly Weather Ozernoe

Today, 3 August, Monday

Time Temperature Precipitation Wind Pressure Humidity
00:00 +14°C° 0 mm 0 mps 752 mmHg 76%
01:00 +14°C° 0 mm 0 mps 751 mmHg 77%
02:00 +13°C° 0 mm 0 mps 751 mmHg 78%
03:00 +13°C° 0 mm 0 mps 751 mmHg 79%
04:00 +14°C° 0 mm 0 mps 751 mmHg 77%
05:00 +16°C° 0 mm 1 mps 751 mmHg 76%
06:00 +18°C° 0 mm 1 mps 752 mmHg 71%
07:00 +20°C° 0 mm 1 mps 752 mmHg 64%
08:00 +22°C° 0 mm 1 mps 752 mmHg 57%
09:00 +25°C° 0 mm 2 mps 752 mmHg 50%
10:00 +26°C° 0 mm 2 mps 751 mmHg 46%
11:00 +27°C° 0 mm 2 mps 751 mmHg 43%
12:00 +28°C° 0 mm 2 mps 751 mmHg 40%
13:00 +28°C° 0 mm 2 mps 750 mmHg 40%
14:00 +29°C° 0 mm 3 mps 750 mmHg 41%
15:00 +29°C° 0 mm 3 mps 750 mmHg 41%
16:00 +28°C° 0 mm 2 mps 750 mmHg 47%
17:00 +27°C° 0 mm 2 mps 750 mmHg 52%
18:00 +27°C° 0 mm 2 mps 750 mmHg 58%
19:00 +25°C° 0 mm 2 mps 750 mmHg 64%
20:00 +21°C° 0 mm 2 mps 749 mmHg 70%
21:00 +19°C° 0 mm 2 mps 749 mmHg 76%
22:00 +19°C° 0 mm 2 mps 749 mmHg 78%
23:00 +18°C° 0 mm 2 mps 749 mmHg 81%

Tomorrow, 4 August, Tuesday

Time Temperature Precipitation Wind Pressure Humidity
00:00 +17°C° 0 mm 2 mps 750 mmHg 84%
01:00 +17°C° 0 mm 2 mps 749 mmHg 85%
02:00 +16°C° 0 mm 2 mps 749 mmHg 86%
03:00 +16°C° 0 mm 2 mps 748 mmHg 87%
04:00 +16°C° 0 mm 2 mps 749 mmHg 84%
05:00 +17°C° 0 mm 2 mps 749 mmHg 82%
06:00 +17°C° 0 mm 3 mps 749 mmHg 79%
07:00 +19°C° 0 mm 3 mps 749 mmHg 71%
08:00 +21°C° 0 mm 3 mps 749 mmHg 63%
09:00 +25°C° 0 mm 3 mps 749 mmHg 55%
10:00 +26°C° 0 mm 3 mps 748 mmHg 50%
11:00 +27°C° 0 mm 3 mps 748 mmHg 45%
12:00 +28°C° 0 mm 4 mps 748 mmHg 40%
13:00 +28°C° 0 mm 4 mps 748 mmHg 40%
14:00 +29°C° 0 mm 4 mps 747 mmHg 39%
15:00 +29°C° 0 mm 4 mps 747 mmHg 39%
16:00 +28°C° 0 mm 3 mps 747 mmHg 45%
17:00 +27°C° 0 mm 3 mps 748 mmHg 50%
18:00 +26°C° 0 mm 2 mps 748 mmHg 56%
19:00 +25°C° 0 mm 2 mps 748 mmHg 59%
20:00 +23°C° 0 mm 2 mps 748 mmHg 62%
21:00 +21°C° 0 mm 2 mps 748 mmHg 64%
22:00 +20°C° 0 mm 2 mps 748 mmHg 67%
23:00 +19°C° 0 mm 2 mps 748 mmHg 70%

Day after tomorrow, 5 August, Wednesday

Time Temperature Precipitation Wind Pressure Humidity
00:00 +18°C° 0 mm 2 mps 748 mmHg 73%
01:00 +17°C° 0 mm 2 mps 748 mmHg 73%
02:00 +16°C° 0 mm 2 mps 748 mmHg 73%
03:00 +15°C° 0 mm 2 mps 747 mmHg 73%
04:00 +16°C° 0 mm 2 mps 748 mmHg 72%
05:00 +16°C° 0 mm 2 mps 748 mmHg 71%
06:00 +17°C° 0 mm 2 mps 748 mmHg 71%
07:00 +19°C° 0 mm 3 mps 748 mmHg 64%
08:00 +21°C° 0 mm 3 mps 748 mmHg 57%
09:00 +24°C° 0 mm 3 mps 748 mmHg 51%
10:00 +25°C° 0 mm 3 mps 748 mmHg 46%
11:00 +27°C° 0 mm 4 mps 748 mmHg 42%
12:00 +28°C° 0 mm 4 mps 748 mmHg 37%
13:00 +28°C° 0 mm 3 mps 747 mmHg 40%
14:00 +27°C° 0 mm 3 mps 747 mmHg 43%
15:00 +27°C° 0 mm 3 mps 747 mmHg 46%
16:00 +26°C° 0 mm 2 mps 747 mmHg 51%
17:00 +25°C° 0 mm 1 mps 747 mmHg 57%
18:00 +24°C° 0 mm 1 mps 747 mmHg 62%
19:00 +22°C° 0.2 mm 1 mps 747 mmHg 71%
20:00 +20°C° 0.2 mm 1 mps 747 mmHg 80%
21:00 +18°C° 0.2 mm 1 mps 747 mmHg 89%
22:00 +16°C° 0 mm 1 mps 746 mmHg 90%
23:00 +16°C° 0 mm 1 mps 746 mmHg 91%

6 August, Thursday

Time Temperature Precipitation Wind Pressure Humidity
00:00 +14°C° 0 mm 0 mps 746 mmHg 92%
01:00 +15°C° 0 mm 1 mps 746 mmHg 92%
02:00 +15°C° 0 mm 1 mps 746 mmHg 93%
03:00 +14°C° 0 mm 1 mps 746 mmHg 94%
04:00 +15°C° 0 mm 1 mps 746 mmHg 93%
05:00 +15°C° 0 mm 1 mps 746 mmHg 93%
06:00 +16°C° 0 mm 1 mps 746 mmHg 92%
07:00 +18°C° 0 mm 1 mps 746 mmHg 84%
08:00 +20°C° 0 mm 1 mps 746 mmHg 76%
09:00 +22°C° 0 mm 1 mps 746 mmHg 67%
10:00 +24°C° 0 mm 1 mps 746 mmHg 61%
11:00 +25°C° 0 mm 1 mps 746 mmHg 54%
12:00 +27°C° 0 mm 1 mps 746 mmHg 48%
13:00 +26°C° 0.3 mm 2 mps 746 mmHg 53%
14:00 +26°C° 0.3 mm 2 mps 746 mmHg 58%
15:00 +25°C° 0.3 mm 2 mps 745 mmHg 62%
16:00 +25°C° 0.1 mm 2 mps 746 mmHg 64%
17:00 +25°C° 0.1 mm 2 mps 746 mmHg 66%
18:00 +24°C° 0.1 mm 2 mps 746 mmHg 68%
19:00 +22°C° 0.2 mm 1 mps 746 mmHg 74%
20:00 +21°C° 0.2 mm 1 mps 746 mmHg 81%
21:00 +19°C° 0.2 mm 1 mps 746 mmHg 88%
22:00 +18°C° 0 mm 1 mps 746 mmHg 90%
23:00 +18°C° 0 mm 1 mps 746 mmHg 92%

7 August, Friday

Time Temperature Precipitation Wind Pressure Humidity
00:00 +16°C° 0 mm 1 mps 746 mmHg 93%
01:00 +16°C° 0 mm 1 mps 746 mmHg 93%
02:00 +15°C° 0 mm 0 mps 746 mmHg 94%
03:00 +14°C° 0 mm 0 mps 745 mmHg 94%
04:00 +15°C° 0.1 mm 0 mps 746 mmHg 94%
05:00 +15°C° 0.1 mm 0 mps 746 mmHg 93%
06:00 +16°C° 0.1 mm 0 mps 746 mmHg 93%
07:00 +19°C° 0 mm 1 mps 746 mmHg 88%
08:00 +21°C° 0 mm 1 mps 746 mmHg 82%
09:00 +22°C° 0 mm 1 mps 746 mmHg 77%
10:00 +24°C° 0.3 mm 1 mps 746 mmHg 71%
11:00 +25°C° 0.3 mm 1 mps 746 mmHg 66%
12:00 +27°C° 0.3 mm 1 mps 746 mmHg 60%
13:00 +27°C° 0.3 mm 2 mps 746 mmHg 56%
14:00 +28°C° 0.3 mm 2 mps 746 mmHg 52%
15:00 +28°C° 0.3 mm 2 mps 746 mmHg 48%
16:00 +28°C° 0 mm 2 mps 746 mmHg 52%
17:00 +27°C° 0 mm 1 mps 746 mmHg 56%
18:00 +27°C° 0 mm 1 mps 746 mmHg 60%
19:00 +25°C° 0 mm 1 mps 746 mmHg 64%
20:00 +23°C° 0 mm 1 mps 746 mmHg 68%
21:00 +21°C° 0 mm 1 mps 746 mmHg 73%
22:00 +20°C° 0 mm 1 mps 746 mmHg 73%
23:00 +19°C° 0 mm 1 mps 746 mmHg 73%

8 August, Saturday

Time Temperature Precipitation Wind Pressure Humidity
00:00 +18°C° 0 mm 1 mps 745 mmHg 73%
01:00 +18°C° 0 mm 1 mps 745 mmHg 75%
02:00 +16°C° 0 mm 1 mps 745 mmHg 77%
03:00 +16°C° 0 mm 1 mps 745 mmHg 78%
04:00 +16°C° 0 mm 1 mps 745 mmHg 77%
05:00 +18°C° 0 mm 1 mps 745 mmHg 77%
06:00 +19°C° 0 mm 1 mps 745 mmHg 76%
07:00 +20°C° 0 mm 1 mps 745 mmHg 70%
08:00 +22°C° 0 mm 1 mps 745 mmHg 63%
09:00 +24°C° 0 mm 1 mps 745 mmHg 57%
10:00 +26°C° 0 mm 1 mps 745 mmHg 51%
11:00 +28°C° 0 mm 1 mps 745 mmHg 44%
12:00 +29°C° 0 mm 1 mps 744 mmHg 38%
13:00 +29°C° 0 mm 1 mps 744 mmHg 41%
14:00 +28°C° 0 mm 1 mps 744 mmHg 44%
15:00 +28°C° 0 mm 1 mps 744 mmHg 46%
16:00 +27°C° 0 mm 1 mps 743 mmHg 51%
17:00 +26°C° 0 mm 1 mps 743 mmHg 55%
18:00 +25°C° 0 mm 1 mps 743 mmHg 60%
19:00 +24°C° 0 mm 1 mps 743 mmHg 60%
20:00 +23°C° 0 mm 1 mps 743 mmHg 61%
21:00 +22°C° 0 mm 1 mps 743 mmHg 61%
22:00 +21°C° 0 mm 1 mps 743 mmHg 65%
23:00 +20°C° 0 mm 1 mps 742 mmHg 68%
Show more